Terminal Aerodrome Forecast
Issued by NWS Green Bay, WI

Home | Current Version | Previous Version | Text Only | Print | Product List | Glossary Off
Versions: 1 2 3 4 5 6 7 8 9 10 11 12 13 14 15 16 17 18 19 20 21 22 23 24 25 26 27 28 29 30 31 32 33 34 35 36 37 38 39 40 41 42 43 44

000
FTUS43 KGRB 230903 AAA
TAFGRB
TAF AMD
KGRB 230903Z 2309/2406 VRB04KT P6SM SCT070
      TEMPO 2310/2314 5SM BR SCT003
     FM231400 27005KT P6SM SCT025 BKN110
     FM231600 31009KT P6SM BKN035
     FM232100 36010KT P6SM BKN050
     FM240200 02008KT P6SM VCSH OVC030=

USA.gov is the U.S. government's official web portal to all federal, state and local government web resources and services.